TimeCST,TemperatureF,Dew PointF,Humidity,Sea Level PressureIn,VisibilityMPH,Wind Direction,Wind SpeedMPH,Gust SpeedMPH,PrecipitationIn,Events,Conditions,WindDirDegrees,DateUTC
12:53 AM,-0.0,-2.9,88,30.86,10.0,SSW,4.6,-,N/A,,Clear,200,2013-11-12 06:53:00
1:53 AM,-0.0,-4.0,83,30.86,10.0,SSW,6.9,-,N/A,,Clear,210,2013-11-12 07:53:00
2:53 AM,-0.0,-4.0,83,30.86,10.0,SSW,5.8,-,N/A,,Clear,210,2013-11-12 08:53:00
3:53 AM,-0.0,-4.0,83,30.84,10.0,SSW,4.6,-,N/A,,Clear,200,2013-11-12 09:53:00
4:53 AM,-0.0,-2.9,88,30.83,10.0,South,5.8,-,N/A,,Clear,190,2013-11-12 10:53:00
5:53 AM,1.0,-2.9,83,30.83,10.0,South,4.6,-,N/A,,Clear,170,2013-11-12 11:53:00
6:53 AM,1.9,-2.0,83,30.83,10.0,SSE,5.8,-,N/A,,Clear,160,2013-11-12 12:53:00
7:53 AM,5.0,-0.0,80,30.82,10.0,South,5.8,-,N/A,,Clear,180,2013-11-12 13:53:00
8:53 AM,12.0,7.0,80,30.81,10.0,SSW,9.2,-,N/A,,Clear,200,2013-11-12 14:53:00
9:53 AM,17.1,10.0,74,30.78,10.0,SSW,11.5,-,N/A,,Clear,200,2013-11-12 15:53:00
10:53 AM,24.1,12.0,60,30.74,10.0,South,12.7,-,N/A,,Clear,190,2013-11-12 16:53:00
11:53 AM,28.0,10.9,49,30.69,10.0,South,16.1,21.9,N/A,,Clear,190,2013-11-12 17:53:00
12:53 PM,32.0,12.0,44,30.64,10.0,SSW,16.1,-,N/A,,Clear,200,2013-11-12 18:53:00
1:53 PM,33.1,12.9,43,30.60,10.0,South,18.4,23.0,N/A,,Clear,190,2013-11-12 19:53:00
2:53 PM,35.1,17.1,48,30.59,10.0,SSW,12.7,-,N/A,,Clear,200,2013-11-12 20:53:00
3:53 PM,34.0,19.0,54,30.56,10.0,South,12.7,21.9,N/A,,Clear,180,2013-11-12 21:53:00
4:53 PM,30.9,19.9,64,30.54,10.0,South,10.4,-,N/A,,Clear,180,2013-11-12 22:53:00
5:53 PM,26.1,19.0,75,30.51,10.0,SSE,11.5,-,N/A,,Clear,160,2013-11-12 23:53:00
6:53 PM,26.1,18.0,71,30.48,10.0,South,11.5,-,N/A,,Clear,170,2013-11-13 00:53:00
7:53 PM,25.0,17.1,72,30.46,10.0,South,11.5,-,N/A,,Clear,170,2013-11-13 01:53:00
8:53 PM,24.1,17.1,75,30.41,10.0,South,11.5,-,N/A,,Clear,170,2013-11-13 02:53:00
9:53 PM,25.0,17.1,72,30.38,10.0,South,12.7,-,N/A,,Clear,170,2013-11-13 03:53:00
10:53 PM,25.0,17.1,72,30.34,10.0,South,12.7,-,N/A,,Clear,180,2013-11-13 04:53:00
11:53 PM,25.0,18.0,75,30.31,10.0,South,11.5,-,N/A,,Clear,170,2013-11-13 05:53:00